TimeCST,TemperatureF,Dew PointF,Humidity,Sea Level PressureIn,VisibilityMPH,Wind Direction,Wind SpeedMPH,Gust SpeedMPH,PrecipitationIn,Events,Conditions,WindDirDegrees,DateUTC
12:14 AM,44.6,32.0,61,30.08,10.0,SSE,8.1,-,N/A,,Clear,150,2012-11-18 06:14:00
12:33 AM,44.6,32.0,61,30.08,10.0,SSE,6.9,-,N/A,,Clear,150,2012-11-18 06:33:00
12:53 AM,44.6,33.8,66,30.08,10.0,SSE,10.4,-,N/A,,Clear,160,2012-11-18 06:53:00
1:14 AM,44.6,32.0,61,30.07,10.0,SSE,8.1,-,N/A,,Clear,160,2012-11-18 07:14:00
1:33 AM,44.6,33.8,66,30.07,10.0,SSE,10.4,-,N/A,,Clear,160,2012-11-18 07:33:00
1:53 AM,44.6,33.8,66,30.07,10.0,SSE,11.5,17.3,N/A,,Scattered Clouds,160,2012-11-18 07:53:00
2:14 AM,44.6,33.8,66,30.07,10.0,SSE,11.5,-,N/A,,Scattered Clouds,160,2012-11-18 08:14:00
2:33 AM,44.6,32.0,61,30.07,10.0,SSE,13.8,17.3,N/A,,Clear,160,2012-11-18 08:33:00
2:53 AM,42.8,32.0,66,30.06,10.0,SSE,10.4,-,N/A,,Clear,160,2012-11-18 08:53:00
3:13 AM,42.8,32.0,66,30.05,10.0,SSE,11.5,17.3,N/A,,Clear,160,2012-11-18 09:13:00
3:33 AM,42.8,32.0,66,30.05,10.0,SSE,10.4,-,N/A,,Clear,160,2012-11-18 09:33:00
3:53 AM,42.8,32.0,66,30.04,10.0,SSE,9.2,-,N/A,,Clear,160,2012-11-18 09:53:00
4:13 AM,42.8,32.0,66,30.04,10.0,SSE,8.1,-,N/A,,Clear,150,2012-11-18 10:13:00
4:34 AM,42.8,32.0,66,30.04,10.0,SSE,5.8,-,N/A,,Clear,150,2012-11-18 10:34:00
4:53 AM,41.0,32.0,70,30.05,10.0,SE,4.6,-,N/A,,Clear,140,2012-11-18 10:53:00
5:13 AM,39.2,32.0,75,30.05,10.0,SE,5.8,-,N/A,,Clear,140,2012-11-18 11:13:00
5:33 AM,39.2,32.0,75,30.04,10.0,SE,5.8,-,N/A,,Clear,140,2012-11-18 11:33:00
5:53 AM,39.2,32.0,75,30.04,10.0,SSE,6.9,-,N/A,,Clear,150,2012-11-18 11:53:00
6:14 AM,41.0,32.0,70,30.03,10.0,SSE,8.1,-,N/A,,Clear,150,2012-11-18 12:14:00
6:33 AM,39.2,30.2,70,30.03,10.0,SE,6.9,-,N/A,,Clear,140,2012-11-18 12:33:00
6:53 AM,39.2,30.2,70,30.03,10.0,SSE,6.9,-,N/A,,Clear,150,2012-11-18 12:53:00
7:13 AM,39.2,30.2,70,30.03,10.0,SE,5.8,-,N/A,,Clear,140,2012-11-18 13:13:00
7:33 AM,39.2,30.2,70,30.03,10.0,SE,5.8,-,N/A,,Clear,140,2012-11-18 13:33:00
7:53 AM,39.2,30.2,70,30.03,10.0,SE,6.9,-,N/A,,Clear,140,2012-11-18 13:53:00
8:13 AM,39.2,30.2,70,30.03,10.0,SE,6.9,-,N/A,,Clear,140,2012-11-18 14:13:00
8:34 AM,39.2,30.2,70,30.03,10.0,SE,5.8,-,N/A,,Clear,140,2012-11-18 14:34:00
8:53 AM,41.0,32.0,70,30.03,10.0,SSE,8.1,-,N/A,,Clear,150,2012-11-18 14:53:00
9:13 AM,42.8,30.2,61,30.03,10.0,SE,8.1,-,N/A,,Clear,140,2012-11-18 15:13:00
9:34 AM,42.8,30.2,61,30.02,10.0,SSE,8.1,-,N/A,,Clear,160,2012-11-18 15:34:00
9:53 AM,44.6,32.0,61,30.02,10.0,SSE,8.1,-,N/A,,Clear,150,2012-11-18 15:53:00
10:13 AM,44.6,32.0,61,30.02,10.0,SSE,9.2,-,N/A,,Clear,160,2012-11-18 16:13:00
10:33 AM,46.4,32.0,57,30.03,10.0,South,12.7,17.3,N/A,,Clear,180,2012-11-18 16:33:00
10:54 AM,46.4,32.0,57,30.03,10.0,South,13.8,-,N/A,,Clear,170,2012-11-18 16:54:00
11:13 AM,46.4,32.0,57,30.02,10.0,South,12.7,-,N/A,,Clear,190,2012-11-18 17:13:00
11:33 AM,48.2,32.0,54,30.02,10.0,South,10.4,-,N/A,,Clear,170,2012-11-18 17:33:00
11:54 AM,48.2,32.0,54,30.01,10.0,SSE,10.4,-,N/A,,Clear,150,2012-11-18 17:54:00
12:13 PM,48.2,32.0,54,30.01,10.0,South,10.4,-,N/A,,Clear,170,2012-11-18 18:13:00
12:33 PM,50.0,33.8,54,30.01,10.0,South,10.4,-,N/A,,Clear,180,2012-11-18 18:33:00
12:54 PM,50.0,32.0,50,30.00,10.0,SSE,11.5,-,N/A,,Clear,150,2012-11-18 18:54:00
1:13 PM,51.8,33.8,50,30.00,10.0,SE,10.4,-,N/A,,Clear,140,2012-11-18 19:13:00
1:33 PM,51.8,33.8,50,29.99,10.0,SSE,8.1,-,N/A,,Clear,160,2012-11-18 19:33:00
1:54 PM,51.8,33.8,50,29.99,10.0,South,11.5,-,N/A,,Clear,170,2012-11-18 19:54:00
2:13 PM,51.8,33.8,50,29.99,10.0,South,10.4,-,N/A,,Clear,180,2012-11-18 20:13:00
2:33 PM,51.8,33.8,50,29.99,10.0,South,9.2,-,N/A,,Clear,170,2012-11-18 20:33:00
2:53 PM,51.8,33.8,50,29.99,10.0,SSE,10.4,-,N/A,,Clear,150,2012-11-18 20:53:00
3:13 PM,51.8,33.8,50,29.99,10.0,SSE,8.1,-,N/A,,Clear,150,2012-11-18 21:13:00
3:34 PM,51.8,33.8,50,29.99,10.0,SSE,9.2,-,N/A,,Clear,160,2012-11-18 21:34:00
3:53 PM,51.8,33.8,50,30.00,10.0,SSE,10.4,-,N/A,,Clear,150,2012-11-18 21:53:00
4:13 PM,51.8,33.8,50,30.00,10.0,SSE,6.9,-,N/A,,Clear,150,2012-11-18 22:13:00
4:34 PM,48.2,33.8,58,30.00,10.0,SSE,5.8,-,N/A,,Clear,150,2012-11-18 22:34:00
4:53 PM,48.2,33.8,58,30.00,10.0,SE,5.8,-,N/A,,Clear,140,2012-11-18 22:53:00
5:13 PM,46.4,33.8,62,30.00,10.0,SE,4.6,-,N/A,,Clear,130,2012-11-18 23:13:00
5:34 PM,46.4,33.8,62,30.01,10.0,SE,4.6,-,N/A,,Clear,130,2012-11-18 23:34:00
5:53 PM,46.4,33.8,62,30.01,10.0,SE,4.6,-,N/A,,Clear,130,2012-11-18 23:53:00
6:13 PM,46.4,33.8,62,30.01,10.0,SE,5.8,-,N/A,,Clear,130,2012-11-19 00:13:00
6:34 PM,44.6,33.8,66,30.01,10.0,SE,5.8,-,N/A,,Clear,140,2012-11-19 00:34:00
6:53 PM,46.4,33.8,62,30.00,10.0,SSE,6.9,-,N/A,,Scattered Clouds,150,2012-11-19 00:53:00
7:13 PM,46.4,33.8,62,30.00,10.0,SSE,6.9,-,N/A,,Scattered Clouds,150,2012-11-19 01:13:00
7:33 PM,48.2,33.8,58,30.00,10.0,SSE,9.2,-,N/A,,Scattered Clouds,160,2012-11-19 01:33:00
7:54 PM,48.2,33.8,58,30.00,10.0,SSE,9.2,-,N/A,,Mostly Cloudy,160,2012-11-19 01:54:00
8:13 PM,46.4,33.8,62,30.00,10.0,SSE,9.2,-,N/A,,Mostly Cloudy,160,2012-11-19 02:13:00
8:33 PM,46.4,33.8,62,30.00,10.0,SE,5.8,-,N/A,,Overcast,140,2012-11-19 02:33:00
8:54 PM,46.4,33.8,62,30.00,10.0,SSE,8.1,-,N/A,,Mostly Cloudy,150,2012-11-19 02:54:00
9:13 PM,46.4,33.8,62,30.00,10.0,SSE,8.1,-,N/A,,Mostly Cloudy,160,2012-11-19 03:13:00
9:33 PM,46.4,33.8,62,30.00,10.0,SSE,9.2,-,N/A,,Scattered Clouds,160,2012-11-19 03:33:00
9:54 PM,46.4,33.8,62,30.00,10.0,SSE,8.1,-,N/A,,Scattered Clouds,160,2012-11-19 03:54:00
10:13 PM,46.4,33.8,62,30.00,10.0,SSE,8.1,-,N/A,,Scattered Clouds,150,2012-11-19 04:13:00
10:33 PM,46.4,33.8,62,30.00,10.0,SSE,9.2,-,N/A,,Scattered Clouds,160,2012-11-19 04:33:00
11:13 PM,46.4,33.8,62,29.99,10.0,SSE,8.1,-,N/A,,Mostly Cloudy,150,2012-11-19 05:13:00
11:33 PM,46.4,33.8,62,30.00,10.0,SSE,8.1,-,N/A,,Scattered Clouds,160,2012-11-19 05:33:00
11:54 PM,46.4,33.8,62,30.00,10.0,SSE,8.1,-,N/A,,Scattered Clouds,160,2012-11-19 05:54:00